User: anonymous   Login
Location: Pensacola
(30.4142°N, 87.2155°W)
Time: 20:27:08
(UTC-05:00)
Language:

LilacSat-2 - Orbit

View from above orbital plane
View from above orbital plane
View from above satellite
View from above satellite

Ground track
Ground track

The orbit data is extracted from the following two-line orbital elements,

1 40908U 15049K   24201.57210848  .00012081  00000-0  45677-3 0  9998
2 40908  97.5228 210.5284 0010744 228.5867 131.4449 15.27067412488430
Epoch (UTC): 19 July 2024 13:43:50
Eccentricity: 0.0010744
inclination: 97.5228°
perigee height: 477 km
apogee height: 492 km
right ascension of ascending node: 210.5284°
argument of perigee: 228.5867°
revolutions per day: 15.27067412
mean anomaly at epoch: 131.4449°
orbit number at epoch: 48843

The dashed part of the orbit path shows where the satellite is in the earth's shadow,  

DLR